Meath Environmental Platform

Observations for Trim Market St

Time AQI Temp °C Hum % Pres Pa CO μg/m³ H₂S μg/m³ NO μg/m³ NO₂ μg/m³ O₃ μg/m³ SO₂ μg/m³ PM1 μg/m³ PM2.5 μg/m³ PM10 μg/m³
Sunday 16 August 2026
04:57 2 14.9 69 56,679 0.21 0 2.27 6.22 48.71 0 2.85 4.08 6.26
04:56 2 15 69 56,690 0.21 0 1.93 6.81 46.19 0 2.85 4.08 6.9
04:55 2 15 69 56,707 0.21 0 1.75 5.68 48.15 0 2.14 3.11 4.99
04:54 2 15 69 56,724 0.21 0 1.66 7.76 46.03 0 2.85 4.09 6.26
04:53 2 15 69 56,742 0.21 0 1.6 6.67 47.66 0 2.14 3.6 6.26
04:52 2 15 69 56,755 0.22 0 1.64 7.16 45.58 0 2.14 3.12 4.99
04:51 2 15 69 56,768 0.21 0 1.63 6.41 47.1 0 1.43 3.12 4.99
04:50 2 15 69 56,776 0.21 0 1.74 5.91 47.38 0 2.85 4.58 6.9
04:49 2 15 69 56,783 0.2 0 1.75 6.53 47.45 0 2.14 4.1 6.26
04:45 2 15.1 68 56,818 0.21 0 1.98 6.73 45.8 0 2.85 4.1 7.53
04:42 2 15.1 68 56,862 0.22 0 1.69 6.97 46.77 0 2.14 3.13 6.89
04:41 2 15.1 68 56,869 0.22 0 1.76 7.94 47.05 0 1.43 4.59 6.89
04:36 2 15.1 68 56,928 0.22 0 2.11 7.31 48.38 0 1.43 3.14 5.62
04:30 2 15.2 68 56,972 0.21 0 1.53 6.27 50.93 0 2.85 4.13 6.25
04:29 2 15.2 68 56,983 0.22 0 1.7 8.11 47.43 0 2.85 3.64 5.61
04:28 2 15.3 68 56,994 0.21 0 1.73 5.55 52.1 0 1.43 4.62 6.89
04:27 2 15.3 68 57,006 0.22 0 1.69 8.65 47.27 0 2.85 4.13 6.25
04:26 2 15.3 68 57,020 0.22 0 1.58 6.22 51.28 0 2.14 4.13 6.25
04:25 2 15.3 68 57,026 0.21 0 1.89 6.85 49.6 0 1.43 2.66 4.33
04:24 2 15.3 68 57,035 0.23 0 1.74 5.96 52.88 0 2.14 4.13 6.89